Location: Monteux
(44.0348°N, 4.9972°E)
Time: 23:45:59
(UTC+00:00)

Cosmos 2341 Rocket - Pass Details

Date: 25 April 2021
Orbit: 969 x 1003 km, 82.9° (Epoch: 14 May)

Event Time Altitude Azimuth Distance (km) Brightness Sun altitude
Rises 23:02:56 0° 359° (N) 3,723 8.1 -31.9°
Reaches altitude 10° 23:05:46 10° 9° (N) 2,774 7.2 -32.0°
Maximum altitude 23:11:26 33° 72° (ENE) 1,631 5.2 -32.1°
Enters shadow 23:11:33 33° 74° (ENE) 1,632 5.1 -32.1°
